Zurück zum Katalog

FENGYUN 1C DEB

AktivPO
NORAD 36689·DEBRIS·🇨🇳 China

Gestartet May 10, 1999 von Taiyuan Satellite Launch Center

Loading…

Nächste Überflüge (nächste 24 Stunden)

TLE

VeraltetSource: Space-Track

Epoche: Aug 17, 2026, 21:39 UTC

1 36689U 99025DZK 26229.90269781  .00001116  00000-0  84503-3 0  9992
2 36689  98.4708 101.5602 0310151 347.5042  11.8544 13.75445936616239

Verfolge FENGYUN 1C DEB in Echtzeit mit AllMySat

Download on the App Store